DELTA 2 R/B, 25876

Orbit data source: Space-Track

DELTA 2 R/B, 25876 is space debris in LEO originally from a launch on Sun, 25 Jul 1999 UTC launched from the Air Force Eastern Test Range (AFETR). Debris objects in space refer to the collection of defunct objects orbiting the Earth. Examples of debris include non-operational satellites, rocket bodies, and fragments generated from explosions, collisions, or faulty payload assembly.

Loading next visibility...
Identifier
25876, 1999-041E
Orbit
LEO
Country
Flag of USUS
Related business
Manufacturer
Boeing/HB
Mission
Spacecraft
Bus & Motor
DELTA/0020, Unknown motor
Mass
1,188 kg wet, 919 kg dry
Launch date (UTC)
1999-07-25 (27 years ago)
Launch vehicle
Unknown
Launch site
Air Force Eastern Test Range (AFETR)
Object type
Payload
Rocket body
Debris
Shape & HBR
Cyl + Cone, 3.0 m
Radar Cross Section
13.645 m², Large (>1 m²)

Expand to show TLE details & history
Last TLE update: 10 hours ago

TLE from 10 hours ago
0 DELTA 2 R/B
1 25876U 99041E   26036.15983502  .00002630  00000-0  46029-3 0  9996
2 25876  51.7645  71.1819 0502434 252.3214 102.2274 14.11702591358434
Epoch: 2026-02-05T03:50Z
TLE epoch observation values (Epoch: 2026-02-05T03:50:09.745Z)
Latitude
-0°
Longitude
-121.67476°
Altitude
948.343 km
Speed
7.331 km/s
True Right ascension
04h 44m 43s
True Declination
0° 00' 00"
Sunlit
Object was in daylight at epoch
Visualization orbit readout
Latitude
Unknown
Longitude
Unknown
Altitude
Unknown
Speed
Unknown
Apparent Right ascension
Unknown
Apparent Declination
Unknown
Sunlit
N/A
Visualization observer readout
Local Sidereal Time
15:32:31
Azimuth
Unknown
Elevation
Unknown
Doppler factor
Unknown
Orbital elements
Apogee altitude
1,217.379 km
Perigee altitude
490.644 km
Semi-major axis
7,232.148 km
Eccentricity
0.05024
Inclination
51.7645°
RAAN
71.1819°
Arg. of periapsis
252.3214°
True anomaly
107.77171°
Mean anomaly
102.2274°
Eccentric anomaly
105.00794°
Mean motion
3.52892 °/min
Orbital period
102.01 mins
BSTAR
0.00046029
Loading maneuver chart data...
Computing Atmospheric mass density...
Loading historical data...
Loading historical data...
Loading historical data...
Loading historical data...
Loading historical data...
Loading historical data...
Loading historical data...
Other satellites on launch #41 in the year 1999 (1999-07-25 UTC)

Documentation

Showing up to 5 results
|